Retour au catalogue

STARLINK-33948

ActifCommunicationsVLEO
NORAD 66147·PAYLOAD·🇺🇸 United States

Lancé Oct 25, 2025 depuis Cape Canaveral Space Force Station

Loading…

Prochains Passages (prochaines 24 heures)

TLE

FraisSource: CelesTrak SupGP

Époque: Sep 14, 2026, 23:06 UTC

1 66147C 25240B   26257.96298611  .00035894  00000+0  10604-2 0  2579
2 66147  53.1571 261.4072 0001362  96.3316  90.1434 15.34376116    19

Suivez STARLINK-33948 en temps réel avec AllMySat

Download on the App Store